Orbital Elements at Epoch 2459000.5 (2020-May-31.0) TDB
Reference: JPL 14 (heliocentric ecliptic J2000)
Element | Value | Uncertainty (1-sigma) | Units |
e | .09817545393517683 | 4.3107e-08 | |
a | 2.985706953329777 | 3.0454e-08 | au |
q | 2.692583817869212 | 1.3335e-07 | au |
i | 12.03110507222216 | 4.9084e-06 | deg |
node | 30.88532101259828 | 2.3249e-05 | deg |
peri | 252.6693483300422 | 3.7955e-05 | deg |
M | 3.944588758581522 | 2.7385e-05 | deg |
tp | 2458979.852454674949 (2020-May-10.35245467) | 0.00014343 | TDB |
period | 1884.383080707051 5.16 | 2.8831e-05 7.893e-08 | d yr |
n | .1910439568715095 | 2.923e-09 | deg/d |
Q | 3.278830088790342 | 3.3444e-08 | au |
|
| | Orbit Determination Parameters
Additional Information
|